Meteo pe oră la Bolshie Logi

Astăzi, 18 Mai, Marţi

Timp Temperatura Precipitaţii Vânt Presiune Umiditate
00:00 +13°C° 0.1 mm 2 m/s 736 mmHg 97%
01:00 +12°C° 0.1 mm 2 m/s 735 mmHg 98%
02:00 +12°C° 0.1 mm 1 m/s 735 mmHg 98%
03:00 +12°C° 0 mm 1 m/s 735 mmHg 98%
04:00 +12°C° 0 mm 1 m/s 735 mmHg 98%
05:00 +13°C° 0 mm 1 m/s 735 mmHg 98%
06:00 +13°C° 0 mm 1 m/s 735 mmHg 97%
07:00 +14°C° 0 mm 1 m/s 736 mmHg 96%
08:00 +14°C° 0 mm 2 m/s 736 mmHg 96%
09:00 +15°C° 0 mm 2 m/s 736 mmHg 92%
10:00 +16°C° 0 mm 2 m/s 736 mmHg 88%
11:00 +17°C° 0 mm 2 m/s 737 mmHg 84%
12:00 +18°C° 0.1 mm 2 m/s 736 mmHg 81%
13:00 +19°C° 0.1 mm 1 m/s 736 mmHg 78%
14:00 +20°C° 0.1 mm 1 m/s 736 mmHg 75%
15:00 +20°C° 0.2 mm 1 m/s 736 mmHg 77%
16:00 +19°C° 0.2 mm 1 m/s 736 mmHg 79%
17:00 +17°C° 0.2 mm 0 m/s 736 mmHg 82%
18:00 +18°C° 0.6 mm 1 m/s 735 mmHg 86%
19:00 +16°C° 0.6 mm 2 m/s 735 mmHg 90%
20:00 +15°C° 0.6 mm 2 m/s 735 mmHg 95%
21:00 +14°C° 1.1 mm 2 m/s 735 mmHg 96%
22:00 +14°C° 1.1 mm 2 m/s 735 mmHg 97%
23:00 +14°C° 1.1 mm 2 m/s 735 mmHg 98%

Mâine, 19 Mai, Miercuri

Timp Temperatura Precipitaţii Vânt Presiune Umiditate
00:00 +14°C° 2.2 mm 2 m/s 735 mmHg 98%
01:00 +13°C° 2.2 mm 2 m/s 735 mmHg 98%
02:00 +13°C° 2.2 mm 2 m/s 735 mmHg 99%
03:00 +13°C° 0.3 mm 2 m/s 735 mmHg 98%
04:00 +13°C° 0.3 mm 1 m/s 735 mmHg 98%
05:00 +13°C° 0.3 mm 1 m/s 735 mmHg 98%
06:00 +13°C° 0.1 mm 2 m/s 736 mmHg 97%
07:00 +13°C° 0.1 mm 2 m/s 736 mmHg 96%
08:00 +14°C° 0.1 mm 2 m/s 736 mmHg 95%
09:00 +13°C° 0.2 mm 2 m/s 737 mmHg 95%
10:00 +12°C° 0.2 mm 3 m/s 737 mmHg 94%
11:00 +12°C° 0.2 mm 3 m/s 737 mmHg 94%
12:00 +12°C° 0.2 mm 3 m/s 738 mmHg 94%
13:00 +12°C° 0.2 mm 3 m/s 738 mmHg 94%
14:00 +11°C° 0.2 mm 3 m/s 738 mmHg 94%
15:00 +11°C° 0.1 mm 4 m/s 739 mmHg 93%
16:00 +11°C° 0.1 mm 4 m/s 739 mmHg 93%
17:00 +11°C° 0.1 mm 4 m/s 739 mmHg 92%
18:00 +11°C° 0 mm 4 m/s 739 mmHg 93%
19:00 +10°C° 0 mm 4 m/s 739 mmHg 93%
20:00 +10°C° 0 mm 3 m/s 740 mmHg 94%
21:00 +10°C° 0.1 mm 3 m/s 739 mmHg 94%
22:00 +10°C° 0.1 mm 3 m/s 739 mmHg 95%
23:00 +10°C° 0.1 mm 3 m/s 739 mmHg 95%

Poimâine, 20 Mai, Joi

Timp Temperatura Precipitaţii Vânt Presiune Umiditate
00:00 +10°C° 0.4 mm 4 m/s 739 mmHg 95%
01:00 +10°C° 0.4 mm 4 m/s 739 mmHg 95%
02:00 +9°C° 0.4 mm 5 m/s 739 mmHg 95%
03:00 +8°C° 1.8 mm 5 m/s 739 mmHg 95%
04:00 +8°C° 1.8 mm 5 m/s 739 mmHg 95%
05:00 +8°C° 1.8 mm 5 m/s 739 mmHg 96%
06:00 +8°C° 2 mm 6 m/s 739 mmHg 95%
07:00 +8°C° 2 mm 7 m/s 738 mmHg 94%
08:00 +8°C° 2 mm 7 m/s 738 mmHg 93%
09:00 +6°C° 1.2 mm 8 m/s 738 mmHg 92%
10:00 +6°C° 1.2 mm 8 m/s 738 mmHg 91%
11:00 +6°C° 1.2 mm 8 m/s 738 mmHg 90%
12:00 +6°C° 1.8 mm 8 m/s 739 mmHg 91%
13:00 +6°C° 1.8 mm 8 m/s 739 mmHg 92%
14:00 +6°C° 1.8 mm 8 m/s 739 mmHg 92%
15:00 +6°C° 2.2 mm 7 m/s 739 mmHg 93%
16:00 +6°C° 2.2 mm 7 m/s 740 mmHg 93%
17:00 +7°C° 2.2 mm 6 m/s 740 mmHg 93%
18:00 +8°C° 0.9 mm 6 m/s 740 mmHg 93%
19:00 +8°C° 0.9 mm 6 m/s 740 mmHg 92%
20:00 +8°C° 0.9 mm 6 m/s 740 mmHg 91%
21:00 +8°C° 0.2 mm 5 m/s 741 mmHg 92%
22:00 +8°C° 0.2 mm 5 m/s 741 mmHg 92%
23:00 +8°C° 0.2 mm 4 m/s 741 mmHg 92%

21 Mai, Vineri

Timp Temperatura Precipitaţii Vânt Presiune Umiditate
00:00 +8°C° 0 mm 5 m/s 742 mmHg 91%
01:00 +8°C° 0 mm 5 m/s 742 mmHg 90%
02:00 +7°C° 0 mm 5 m/s 742 mmHg 90%
03:00 +7°C° 0 mm 5 m/s 743 mmHg 91%
04:00 +7°C° 0 mm 5 m/s 743 mmHg 92%
05:00 +6°C° 0 mm 4 m/s 744 mmHg 93%
06:00 +7°C° 0 mm 4 m/s 744 mmHg 86%
07:00 +8°C° 0 mm 4 m/s 744 mmHg 79%
08:00 +10°C° 0 mm 4 m/s 745 mmHg 71%
09:00 +11°C° 0 mm 4 m/s 745 mmHg 66%
10:00 +13°C° 0 mm 5 m/s 745 mmHg 61%
11:00 +14°C° 0 mm 5 m/s 746 mmHg 55%
12:00 +14°C° 0 mm 5 m/s 746 mmHg 54%
13:00 +15°C° 0 mm 5 m/s 746 mmHg 53%
14:00 +15°C° 0 mm 5 m/s 746 mmHg 51%
15:00 +15°C° 0 mm 4 m/s 746 mmHg 54%
16:00 +15°C° 0 mm 4 m/s 746 mmHg 56%
17:00 +16°C° 0 mm 3 m/s 746 mmHg 58%
18:00 +13°C° 0 mm 3 m/s 747 mmHg 63%
19:00 +13°C° 0 mm 2 m/s 747 mmHg 69%
20:00 +10°C° 0 mm 2 m/s 747 mmHg 75%
21:00 +10°C° 0 mm 1 m/s 747 mmHg 78%
22:00 +9°C° 0 mm 1 m/s 747 mmHg 81%
23:00 +8°C° 0 mm 1 m/s 748 mmHg 84%

22 Mai, Sâmbătă

Timp Temperatura Precipitaţii Vânt Presiune Umiditate
00:00 +8°C° 0 mm 1 m/s 748 mmHg 84%
01:00 +6°C° 0 mm 0 m/s 748 mmHg 85%
02:00 +6°C° 0 mm 0 m/s 748 mmHg 85%
03:00 +6°C° 0 mm 0 m/s 748 mmHg 85%
04:00 +6°C° 0 mm 0 m/s 748 mmHg 85%
05:00 +6°C° 0 mm 0 m/s 748 mmHg 85%
06:00 +9°C° 0 mm 1 m/s 748 mmHg 78%
07:00 +12°C° 0 mm 1 m/s 748 mmHg 72%
08:00 +14°C° 0 mm 1 m/s 748 mmHg 66%
09:00 +15°C° 0 mm 2 m/s 748 mmHg 60%
10:00 +16°C° 0 mm 2 m/s 748 mmHg 55%
11:00 +17°C° 0 mm 2 m/s 748 mmHg 49%
12:00 +18°C° 0 mm 2 m/s 748 mmHg 49%
13:00 +18°C° 0 mm 3 m/s 747 mmHg 48%
14:00 +19°C° 0 mm 3 m/s 747 mmHg 47%
15:00 +19°C° 0 mm 3 m/s 747 mmHg 50%
16:00 +19°C° 0 mm 3 m/s 747 mmHg 53%
17:00 +19°C° 0 mm 2 m/s 747 mmHg 56%
18:00 +17°C° 0 mm 2 m/s 746 mmHg 64%
19:00 +15°C° 0 mm 2 m/s 746 mmHg 71%
20:00 +13°C° 0 mm 2 m/s 746 mmHg 79%
21:00 +12°C° 0 mm 2 m/s 746 mmHg 81%
22:00 +10°C° 0 mm 2 m/s 746 mmHg 83%
23:00 +10°C° 0 mm 2 m/s 746 mmHg 85%

23 Mai, Duminică

Timp Temperatura Precipitaţii Vânt Presiune Umiditate
00:00 +10°C° 0 mm 2 m/s 746 mmHg 85%
01:00 +9°C° 0 mm 2 m/s 745 mmHg 85%
02:00 +9°C° 0 mm 2 m/s 745 mmHg 85%
03:00 +10°C° 0 mm 2 m/s 745 mmHg 86%
04:00 +10°C° 0 mm 3 m/s 744 mmHg 87%
05:00 +10°C° 0 mm 3 m/s 744 mmHg 89%
06:00 +12°C° 0 mm 3 m/s 744 mmHg 84%
07:00 +13°C° 0 mm 3 m/s 743 mmHg 80%
08:00 +14°C° 0 mm 4 m/s 743 mmHg 75%
09:00 +14°C° 0.4 mm 4 m/s 743 mmHg 79%
10:00 +14°C° 0.4 mm 5 m/s 742 mmHg 83%
11:00 +14°C° 0.4 mm 5 m/s 742 mmHg 86%
12:00 +14°C° 0.6 mm 5 m/s 742 mmHg 88%
13:00 +13°C° 0.6 mm 5 m/s 742 mmHg 89%
14:00 +13°C° 0.6 mm 5 m/s 742 mmHg 91%
15:00 +14°C° 0.2 mm 5 m/s 743 mmHg 85%
16:00 +14°C° 0.2 mm 5 m/s 743 mmHg 79%
17:00 +15°C° 0.2 mm 5 m/s 743 mmHg 73%
18:00 +14°C° 0 mm 5 m/s 744 mmHg 76%
19:00 +13°C° 0 mm 4 m/s 744 mmHg 79%
20:00 +12°C° 0 mm 3 m/s 744 mmHg 82%
21:00 +11°C° 0 mm 3 m/s 745 mmHg 85%
22:00 +10°C° 0 mm 3 m/s 745 mmHg 89%
23:00 +9°C° 0 mm 3 m/s 746 mmHg 92%
Arată mai mult

Formular de consimțământ

Meteoprog și furnizorii noștri de servicii pot stoca și accesa date personale, precum cookies, identificatori de dispozitiv sau alte tehnologii similare pe dispozitivul dumneavoastră și procesa astfel de date pentru a personaliza conținutul și reclamele, dar și pentru a oferi caracteristici de social media și pentru a analiza traficul.

  • Stocarea și/sau accesarea informațiilor pe dispozitivul dumneavoastră

    Cookies, identificatori de dispozitiv sau alte informații pot fi stocate sau accesate pe dispozitiv în scopurile indicate mai sus.

  • Reclame și conținut personalizat, evaluarea reclamelor și a conținutului, informații despre audiențe și dezvoltarea produselor

    Reclamele și conținutul pot fi personalizate pe baza unui profil. Pot fi adăugate date suplimentare pentru a personaliza mai bine reclamele și conținutul. Performanța reclamelor și conținutului poate fi măsurată. Pot fi obținute informații despre utilizatorii care au văzut reclamele și conținutul. Aceste date pot fi utilizate pentru a dezvolta sau îmbunătăți experiența utilizatorilor, sistemele și software-ul.

Dând clic pe ‘Sunt de acord’, permiteți utilizarea cookie-urilor menționate, a identificatorilor de dispozitiv, balizelor web sau altor tehnologii similare. Setările pot fi modificate din browser-ul dispozitivului dumneavoastră.

În anumite scopuri, interesele legitime pot prima asupra consimțământului. Puteți citi mai multe informații în acest sens în Politica privind Confidențialitatea Datelor și Cookie.